Flag for Germany Weather past 2 weeks in Wesseling, North Rhine-Westphalia, Germany

Now
48 °F

Fog.


Feels Like: 48 °F
Forecast: 50 / 67 °F
Wind: 1 mph from Southeast

Location: Koeln / Bonn

Current Time: Aug 21, 2014 at 4:33:02 AM

Latest Report: Aug 21, 2014 at 4:00 AM


Visibility: 13 mi

Pressure: 30.03 "Hg

Humidity: 97%

Dew point: 47 °F

Location of WesselingLocation

Historic Weather in Wesseling — Graph

°F

Wesseling temperature yesterday

Maximum temperature yesterday: 66 °F (at 6:00 PM)
Minimum temperature yesterday: 45 °F (at 6:00 AM)
Average temperature yesterday: 54 °F

Past Weeks' High & Low Weather Summary

 TemperatureHumidityPressure
High80 °F (Aug 8, 3:00 PM)97% (Aug 6, 3:00 AM)30.10 "Hg (Aug 6, 3:00 AM)
Low45 °F (Aug 20, 6:00 AM)44% (Aug 11, 4:00 PM)29.61 "Hg (Aug 10, 7:00 PM)
Average61 °F79%29.87 "Hg
* Reported Aug 6 3:00 AM — Aug 21 3:00 AM, Wesseling, Weather by CustomWeather, © 2014

Note: Actual official high and low records may vary slightly from our data, if they occured in-between our weather recording intervals... More about our weather records

Advertising

Wesseling weather history for previous 24 hours

 ConditionsComfort  
Time TempWeatherWind HumidityBarometerVisibility
3:00 AM
Aug 21
49 °FFog.1 mph97%30.03 "Hg12 mi
2:00 AM51 °FPassing clouds.1 mph95%30.02 "Hg22 mi
1:00 AM51 °FOvercast.1 mph96%30.02 "Hg25 mi
12:00 AM51 °FOvercast.1 mph96%30.02 "Hg25 mi
11:00 PM
Aug 20
50 °FPassing clouds.2 mph97%30.02 "Hg31 mi
10:00 PM51 °FOvercast.1 mph95%30.02 "Hg22 mi
9:00 PM52 °FRain showers. Overcast.3 mph93%30.03 "Hg12 mi
8:00 PM56 °FLow clouds.5 mph79%29.99 "Hg16 mi
7:00 PM62 °FOvercast.2 mph56%29.97 "Hg25 mi
6:00 PM66 °FPartly sunny.2 mph48%29.97 "Hg25 mi
5:00 PM64 °FPartly sunny.2 mph48%29.98 "Hg31 mi
4:00 PM64 °FPartly sunny.5 mph45%29.98 "Hg31 mi
3:00 PM64 °FOvercast.5 mph48%30.00 "Hg31 mi
2:00 PM63 °FPartly sunny.2 mph49%30.00 "Hg31 mi
1:00 PM63 °FScattered clouds.1 mph48%30.00 "Hg37 mi
12:00 PM61 °FScattered clouds.2 mph61%30.01 "Hg31 mi
11:00 AM59 °FPassing clouds.2 mph67%30.02 "Hg31 mi
10:00 AM56 °FPassing clouds.2 mph72%30.02 "Hg31 mi
9:00 AM52 °FPassing clouds.3 mph87%30.02 "Hg31 mi
8:00 AM47 °FPassing clouds.2 mph90%30.02 "Hg28 mi
7:00 AM45 °FFog.2 mph92%30.01 "Hg25 mi
6:00 AM45 °FFog.2 mph94%30.01 "Hg22 mi
5:00 AM47 °FFog.2 mph91%30.00 "Hg25 mi
4:00 AM46 °FPassing clouds.2 mph93%29.99 "Hg25 mi
Weather by CustomWeather, © 2014

See weather overviewHow to use our weather pages